Regional Weather Roundup
Issued by NWS Little Rock, AR

Home | Current Version | Previous Version | Graphics & Text | Print | Product List | Glossary On
Versions: 1 2 3 4 5 6 7 8 9 10 11 12 13 14 15 16 17 18 19 20 21 22 23 24 25 26 27 28 29 30 31 32 33 34 35 36 37 38 39 40 41 42 43 44 45 46 47 48 49 50
000
ASUS44 KLZK 010605
RWRLZK

WEATHER ROUNDUP FOR ARKANSAS
NATIONAL WEATHER SERVICE LITTLE ROCK AR
100 AM CDT MON SEP 01 2014

NOTE: "FAIR" INDICATES FEW OR NO CLOUDS BELOW 12,000 FEET WITH NO
SIGNIFICANT WEATHER AND/OR OBSTRUCTIONS TO VISIBILITY.

ARZ001-003-010-029-010700-
NORTHWEST ARKANSAS

CITY           SKY/WX    TMP DP  RH WIND       PRES   REMARKS
FAYETTEVILLE   FAIR      76  71  85 S15G22    29.90R
6HR MIN TEMP:  76; 6HR MAX TEMP:  84;

FORT SMITH     FAIR      79  72  79 CALM      29.88S
6HR MIN TEMP:  78; 6HR MAX TEMP:  89;

HARRISON       MOCLDY    75  71  87 S9        29.93S
6HR MIN TEMP:  74; 6HR MAX TEMP:  82;

BENTONVILLE    FAIR      75  70  83 S9        29.90S
6HR MIN TEMP:  75; 6HR MAX TEMP:  86;

ROGERS         FAIR      76  70  82 S12       29.90F
6HR MIN TEMP:  76; 6HR MAX TEMP:  85;

HIGHFILL       FAIR      77  70  79 S12       29.89R
6HR MIN TEMP:  77; 6HR MAX TEMP:  86;

$$

ARZ004-005-016-010700-
NORTH CENTRAL ARKANSAS

CITY           SKY/WX    TMP DP  RH WIND       PRES   REMARKS
BATESVILLE     CLOUDY    77  72  83 S6        29.94S
6HR MIN TEMP:  77; 6HR MAX TEMP:  84;

FLIPPIN        FAIR      75  68  78 S6        29.92F
6HR MIN TEMP:  75; 6HR MAX TEMP:  84;

MTN HOME       FAIR      75  72  90 S6        29.92S
6HR MIN TEMP:  75; 6HR MAX TEMP:  84;

$$

ARZ040-041-010700-
WEST CENTRAL ARKANSAS

CITY           SKY/WX    TMP DP  RH WIND       PRES   REMARKS
MENA           FAIR      79  72  78 S5        29.96S
MOUNT IDA      FAIR      78  69  73 VRB5      29.94R
6HR MIN TEMP:  78; 6HR MAX TEMP:  83;

$$

ARZ009-017-025-026-028-010700-
NORTHEAST ARKANSAS

CITY           SKY/WX    TMP DP  RH WIND       PRES   REMARKS
CORNING          N/A     75  73  94 S10       29.95R
JONESBORO      FAIR      76  71  85 S10       29.95S
6HR MIN TEMP:  75; 6HR MAX TEMP:  84;

NEWPORT        FAIR      75  73  93 S7        29.96S
6HR MIN TEMP:  75; 6HR MAX TEMP:  84;

WALNUT RIDGE   FAIR      75  68  78 S8        29.94R
6HR MIN TEMP:  73; 6HR MAX TEMP:  84;

BLYTHEVILLE    FAIR      75  74  96 S6        29.97S
6HR MIN TEMP:  75; 6HR MAX TEMP:  82;

$$

ARZ022-023-033-042-044-010700-
CENTRAL ARKANSAS

CITY           SKY/WX    TMP DP  RH WIND       PRES   REMARKS
LITTLE ROCK    FAIR      76  71  85 S8        29.96S
6HR MIN TEMP:  76; 6HR MAX TEMP:  84;

N LITTLE ROCK    N/A     76  73  92 SW9       29.96S
6HR MIN TEMP:  76; 6HR MAX TEMP:  83;

JACKSONVILLE   FAIR      76  72  89 S5        29.96R
6HR MIN TEMP:  76; 6HR MAX TEMP:  84;

SEARCY         FAIR      74  73  96 MISG      29.96S
6HR MIN TEMP:  74; 6HR MAX TEMP:  83;

HOT SPRINGS    FAIR      77  72  84 S8        29.97S
6HR MIN TEMP:  76; 6HR MAX TEMP:  84;

RUSSELLVILLE   FAIR      77  72  84 S3        29.93S
6HR MIN TEMP:  75; 6HR MAX TEMP:  85;

CLINTON        CLOUDY    75  73  94 SW3       29.95R
$$

ARZ036-010700-
EAST ARKANSAS

CITY           SKY/WX    TMP DP  RH WIND       PRES   REMARKS
WEST MEMPHIS   FAIR      75  75 100 S6        29.98R
6HR MIN TEMP:  75; 6HR MAX TEMP:  81;

$$

ARZ050-053-066-070-073-010700-
SOUTHWEST ARKANSAS

CITY           SKY/WX    TMP DP  RH WIND       PRES   REMARKS
ARKADELPHIA    FAIR      74  74 100 CALM      29.97S
6HR MIN TEMP:  74; 6HR MAX TEMP:  86; 6HR PCP: TRACE;

CAMDEN         FAIR      73  72  94 CALM      29.98R
TEXARKANA      FAIR      76  71  85 S8        29.96R
6HR MIN TEMP:  76; 6HR MAX TEMP:  88;

EL DORADO      FAIR      74  72  93 S6        29.99R
6HR MIN TEMP:  74; 6HR MAX TEMP:  80;

DE QUEEN       FAIR      77  71  82 S3        29.93R
6HR MIN TEMP:  77; 6HR MAX TEMP:  88;

$$

ARZ056-057-069-010700-
SOUTHEAST ARKANSAS

CITY           SKY/WX    TMP DP  RH WIND       PRES   REMARKS
PINE BLUFF     FAIR      73  70  90 S5        29.97S
6HR MIN TEMP:  73; 6HR MAX TEMP:  80; 6HR PCP: TRACE;

STUTTGART      FAIR      75  72  88 S8        29.98S
6HR MIN TEMP:  75; 6HR MAX TEMP:  84;

MONTICELLO     FAIR      77  74  90 S6        29.98S
6HR MIN TEMP:  75; 6HR MAX TEMP:  78;


$$





USA.gov is the U.S. government's official web portal to all federal, state and local government web resources and services.